Beverly, MA

3:30 PM EDT on May 23, 2018 (GMT -0400)
Beverly Municipal

Weather History for KBVY - January, 2013

Change the Weather History Date:

Saturday, January 12, 2013

  Actual Average Record
Temperature  
Mean Temperature 42 °F -  
Max Temperature 46 °F 30 °F 62 °F (2017)
Min Temperature 39 °F 15 °F 16 °F (2016)
Degree Days  
Heating Degree Days 22    
Moisture  
Dew Point 39 °F    
Average Humidity 88    
Maximum Humidity 96    
Minimum Humidity 79    
Precipitation  
Precipitation 0.02 in - - ()
Sea Level Pressure  
Sea Level Pressure 30.15 in    
Wind  
Wind Speed 5 mph (SSE)    
Max Wind Speed 8 mph    
Max Gust Speed -    
Visibility 6 miles    
Events Fog    
Averages and records for this station are not official NWS values.
T = Trace of Precipitation, MM = Missing Value Source: NWS Daily Summary

Daily Weather History Graph

Daily Weather History Graph

Search for Another Location

Airport or City:

Astronomy

Jan. 12, 2013 Rise Set
Actual Time 7:12 AM EST 4:32 PM EST
Civil Twilight 6:40 AM EST 5:03 PM EST
Nautical Twilight 6:05 AM EST 5:38 PM EST
Astronomical Twilight 5:31 AM EST 6:12 PM EST
Moon 7:26 AM EST (1/12) 6:00 PM EST (1/12)
Length of Visible Light 10h 23m
Length of Day
9h 20m
New Moon, 1% of the Moon is Illuminated
Jan 12
New Moon
Jan 18
First Quarter
Jan 26
Full
Feb 3
Last Quarter
Feb 10
New

Hourly Weather History & Observations

Time (EST) Temp. Windchill Dew Point Humidity Pressure Visibility Wind Dir Wind Speed Gust Speed Precip Events Conditions
12:53 AM 39.9 °F 35.1 °F 37.0 °F 89% 30.20 in 4.0 mi SSE 6.9 mph - 0.01 in   Overcast
1:00 AM 39.2 °F 34.2 °F 37.4 °F 93% 30.21 in 4.0 mi SSE 6.9 mph - N/A   Overcast
1:53 AM 39.9 °F 35.8 °F 37.9 °F 93% 30.20 in 3.0 mi SSE 5.8 mph - N/A   Overcast
2:16 AM 39.2 °F 33.6 °F 37.4 °F 93% 30.19 in 5.0 mi SSE 8.1 mph - N/A   Overcast
2:53 AM 39.9 °F 34.5 °F 37.0 °F 89% 30.18 in 8.0 mi SSE 8.1 mph - N/A   Overcast
3:53 AM 41.0 °F 35.8 °F 37.0 °F 86% 30.15 in 10.0 mi SSE 8.1 mph - N/A   Overcast
4:11 AM 41.0 °F 37.1 °F 37.4 °F 87% 30.17 in 10.0 mi SSE 5.8 mph - N/A   Overcast
4:53 AM 41.0 °F 36.4 °F 37.0 °F 86% 30.14 in 10.0 mi SE 6.9 mph - N/A   Overcast
5:02 AM 41.0 °F 38.0 °F 37.4 °F 87% 30.15 in 10.0 mi SE 4.6 mph - N/A   Overcast
5:53 AM 41.0 °F 38.0 °F 37.9 °F 89% 30.16 in 10.0 mi SSE 4.6 mph - N/A   Overcast
6:41 AM 41.0 °F 38.0 °F 39.2 °F 93% 30.16 in 3.0 mi SSE 4.6 mph - N/A   Overcast
6:53 AM 41.0 °F 37.1 °F 39.0 °F 93% 30.15 in 4.0 mi SSE 5.8 mph - N/A   Overcast
7:53 AM 41.0 °F - 39.0 °F 93% 30.18 in 4.0 mi Calm Calm - N/A   Overcast
8:53 AM 42.1 °F - 39.9 °F 92% 30.19 in 4.0 mi Calm Calm - N/A   Overcast
9:53 AM 43.0 °F - 39.9 °F 89% 30.18 in 5.0 mi Calm Calm - N/A   Overcast
10:53 AM 44.1 °F - 39.0 °F 82% 30.17 in 10.0 mi Calm Calm - N/A   Overcast
11:53 AM 45.0 °F 43.5 °F 39.9 °F 82% 30.14 in 10.0 mi SE 3.5 mph - N/A   Overcast
12:17 PM 44.6 °F 40.2 °F 39.2 °F 81% 30.13 in 10.0 mi SE 8.1 mph - N/A   Mostly Cloudy
12:53 PM 45.0 °F 41.8 °F 39.9 °F 82% 30.13 in 10.0 mi SSE 5.8 mph - N/A   Overcast
1:17 PM 44.6 °F 42.2 °F 39.2 °F 81% 30.14 in 10.0 mi SSE 4.6 mph - N/A   Overcast
1:53 PM 45.0 °F - 39.9 °F 82% 30.14 in 10.0 mi Calm Calm - N/A   Overcast
2:53 PM 46.0 °F - 39.9 °F 79% 30.14 in 10.0 mi Calm Calm - N/A   Overcast
3:53 PM 45.0 °F 41.8 °F 39.9 °F 82% 30.14 in 10.0 mi SE 5.8 mph - N/A   Overcast
4:40 PM 44.6 °F 42.2 °F 39.2 °F 81% 30.15 in 10.0 mi South 4.6 mph - N/A   Overcast
4:53 PM 44.1 °F 41.5 °F 39.9 °F 85% 30.13 in 10.0 mi SSE 4.6 mph - N/A   Overcast
5:53 PM 44.1 °F - 39.9 °F 85% 30.14 in 6.0 mi Calm Calm - N/A   Overcast
6:31 PM 42.8 °F - 41.0 °F 93% 30.15 in 5.0 mi Calm Calm - N/A   Overcast
6:51 PM 42.8 °F 41.1 °F 41.0 °F 93% 30.14 in 1.8 mi WSW 3.5 mph - N/A   Overcast
6:53 PM 43.0 °F 41.3 °F 41.0 °F 93% 30.13 in 1.5 mi West 3.5 mph - N/A   Overcast
7:53 PM 42.8 °F - 41.0 °F 93% 30.14 in 1.5 mi Calm Calm - N/A   Overcast
8:16 PM 42.8 °F - 39.2 °F 87% 30.14 in 0.8 mi Calm Calm - N/A   Mist
8:53 PM 42.1 °F - 39.9 °F 92% 30.14 in 0.8 mi Calm Calm - N/A   Mist
9:53 PM 42.1 °F - 39.9 °F 92% 30.12 in 0.5 mi Calm Calm - 0.01 in Fog Fog
10:31 PM 42.8 °F - 39.2 °F 87% 30.13 in 0.2 mi Calm Calm - N/A Fog Fog
10:53 PM 42.1 °F - 41.0 °F 96% 30.11 in 0.2 mi Calm Calm - N/A Fog Fog
11:21 PM 42.8 °F 41.1 °F 39.2 °F 87% 30.13 in 0.5 mi West 3.5 mph - N/A Fog Fog
11:53 PM 42.8 °F - 41.0 °F 93% 30.13 in 0.5 mi Calm Calm - N/A Fog Fog